Find Kosmos-1707

NORAD ID: 16326 Int'l Des: 1985-113 Owner: GRU Country: SU operational
LEOCIRCULARPOLAR

Live Position

Loading 3D Globe...

About Kosmos-1707

Description loading...

Upcoming Passes

Passes for default location (London). Set your location on the main map for personalized predictions.

Altitude History

Loading altitude history...

Two-Line Element Set

1 16326U 85113A 26110.35658375 .00042844 00000-0 33252-3 0 9998
2 16326 82.4885 229.0603 0003445 169.5535 190.5800 15.71610732208351
Epoch: Apr 20, 2026 • Age: 17 hours

Current Status

Altitude 360.0 km
Velocity 7.69 km/s
Sub-Earth Point -3.14°S, 1.55°W
Launch Date Dec 12, 1985
Age 40.3 years
Type other

Technical Details

Classification Payload
Mass 1750.00 kg
Dry Mass 1750.00 kg
Total Mass 1750.00 kg
Length 3.20 m
Diameter 1.30 m
Span 13.10 m
Shape Cyl + Ant
Manufacturer YUZH
Bus Type Tselina-D
Phase Status In Orbit
Owner/State GRU/SU

Most Searched